Regional Weather Roundup
Issued by NWS Charleston, SC

Current Version | Previous Version | Graphics & Text | Print | Product List | Glossary On
Versions: 1 2 3 4 5 6 7 8 9 10 11 12 13 14 15 16 17 18 19 20 21 22 23 24 25 26 27 28 29 30 31 32 33 34 35 36 37 38 39 40 41 42 43 44 45 46 47 48 49 50
000
ASUS42 KCHS 300013
RWRCHS

REGIONAL WEATHER ROUNDUP
NATIONAL WEATHER SERVICE CHARLESTON SC
800 PM EDT MON AUG 29 2016

NOTE: "FAIR" INDICATES FEW OR NO CLOUDS BELOW 12,000 FEET WITH NO
SIGNIFICANT WEATHER AND/OR OBSTRUCTIONS TO VISIBILITY.

NOT ALL STATIONS ARE QUALITY CONTROLLED. USE DATA WITH CAUTION...
ESPECIALLY DEWPOINT OBSERVATIONS.

SCZ027-030-031-034>040-042>050-300100-
...SOUTHEAST SOUTH CAROLINA...

CITY           SKY/WX    TMP DP  RH WIND       PRES   REMARKS
N CHARLESTON   PTCLDY    78  74  87 N3        30.04R
6HR MIN TEMP:  78; 6HR MAX TEMP:  91; 6HR PCP:  0.01;

WATERFRONT PRK   N/A     82  76  82 NE7       30.01S
MOUNT PLEASANT FAIR      79  73  83 CALM      30.04R
JOHNS ISLAND   FAIR      81  75  83 NE5       30.04R
PINOPOLIS        N/A     81  73  78 VRB3      29.98R
MONCKS CORNER  FAIR      75  73  94 CALM      30.05R
SUMMERVILLE    MOCLDY    77  77 100 CALM      30.06R
BEAUFORT MCAS  PTCLDY    75  72  90 NE7       30.03S
6HR MIN TEMP:  74; 6HR MAX TEMP:  91; 6HR PCP:  0.28;

BEAUFORT ARPT  FAIR      77  73  88 NE12      30.03R FOG
HILTON HEAD IS NOT AVBL
WALTERBORO     CLOUDY    77  77 100 CALM      30.06S
ALLENDALE      MOCLDY    73  72  94 CALM      30.05S

...SOUTHERN MIDLANDS AND PEE DEE...

CITY           SKY/WX    TMP DP  RH WIND       PRES   REMARKS
GEORGETOWN     FAIR      77  73  88 NE3       30.06R
KINGSTREE      FAIR      73  72  94 CALM      30.05R
ORANGEBURG     CLOUDY    79  74  84 SE6       30.06R
6HR MIN TEMP:  79; 6HR MAX TEMP:  93; 6HR PCP: TRACE;

BARNWELL       NOT AVBL
AIKEN          MOCLDY    79  73  83 CALM      30.09S
MANNING        FAIR      77  72  83 CALM      30.05S
COLUMBIA       CLOUDY    83  73  72 E5        30.05R
6HR MIN TEMP:  79; 6HR MAX TEMP:  90; 6HR PCP:  0.29;

SUMTER         CLOUDY    81  72  72 E5        30.04R
6HR MIN TEMP:  81; 6HR MAX TEMP:  91; 6HR PCP: TRACE;

FLORENCE       CLOUDY    81  73  76 CALM      30.07R
6HR MIN TEMP:  81; 6HR MAX TEMP:  92;

MYRTLE BEACH   PTCLDY    82  68  61 VRB6      30.06S
N MYRTLE BEACH PTCLDY    81  71  71 NE12      30.04S
6HR MIN TEMP:  77; 6HR MAX TEMP:  87; 6HR PCP:  0.01;


$$

GAZ063-065-086>088-099>101-113>116-118-119-134>141-150-300100-
...SOUTHEAST GEORGIA...

CITY           SKY/WX    TMP DP  RH WIND       PRES   REMARKS
SAVANNAH ARPT  CLOUDY    76  72  87 NE5       30.03R
6HR MIN TEMP:  75; 6HR MAX TEMP:  93; 6HR PCP:  0.17;

HUNTER AAF     PTCLDY    79  77  94 N7        30.00R
6HR MIN TEMP:  79; 6HR MAX TEMP:  90; 6HR PCP: TRACE;

FORT STEWART   MOCLDY    81  74  81 NE3       30.00R
6HR MIN TEMP:  81; 6HR MAX TEMP:  89; 6HR PCP: TRACE;

STATESBORO     LGT RAIN  77  76  96 CALM      30.04S
SYLVANIA       NOT AVBL
CLAXTON        FAIR      82  71  68 NE9       30.02R

...CSRA...CENTRAL AND FAR SOUTHEAST GEORGIA...

CITY           SKY/WX    TMP DP  RH WIND       PRES   REMARKS
THOMSON        NOT AVBL
AUGUSTA-BUSH   CLOUDY    76  73  91 S3        30.04S
6HR MIN TEMP:  76; 6HR MAX TEMP:  95; 6HR PCP: TRACE;

AUGUSTA-DANIEL MOCLDY    81  70  69 SE3       30.06S
SWAINSBORO     FAIR      84  70  61 E7        30.05R
VIDALIA        CLOUDY    82  75  78 SE3       30.03R
EASTMAN        FAIR      86  61  42 E6        30.04R
HAZLEHURST     FAIR      84  74  72 CALM      30.00S HX  91
ALMA           CLEAR     82  73  74 E5        30.00R
6HR MIN TEMP:  80; 6HR MAX TEMP:  91; 6HR PCP:  0.04;

WAYCROSS         N/A     86  74  67 E7        30.00R HX  93
JESUP          FAIR      82  79  89 E6        30.01R HX  93
BAXLEY         FAIR      81  81 100 NE5       30.00F HX  91
BRUNSWICK      PTCLDY    82  77  83 E9        30.02R HX  91
SAINT SIMONS   PTCLDY    84  74  71 E12       30.00R HX  91
6HR MIN TEMP:  84; 6HR MAX TEMP:  90;


$$

SCZ027-028-034-036>038-045-046-048>050-GAZ119-141-300100-
...LAKE AND SUPPLEMENTAL COASTAL OBSERVATIONS...

STATION/POSITION TIME  TEMP    WIND        PRES    WAVE   SWELL
                       AIR SEA DIR/SP/G            HT/PER HT/PER/DIR
                 (UTC) (F)     (DEG/KT/KT) (MB)    (FT/S) (FT/S/D)
WINYAH BAY       NOT AVBL
LAKE MURRAY      2300   86     110/  4/  9 1016.9R
ACE BASIN NERRS  NOT AVBL
FORT PULASKI     2300   80 85   10/  9/ 12   N/A
SAPELO ISLAND    2300   85      60/  9     1016.0S

$$

ANZ835-935-AMZ111-154-330-350-352-354-370-450-454-472-300100-
...C-MAN AND BUOY OBSERVATIONS...

STATION/POSITION TIME  TEMP    WIND        PRES    WAVE   SWELL
                       AIR SEA DIR/SP/G            HT/PER HT/PER/DIR
                 (UTC) (F)     (DEG/KT/KT) (MB)    (FT/S) (FT/S/D)
BUOY 41004       2350   84 85   50/ 12/ 16 1015.7F   4/ 8   3/120/ 8
BUOY 41008       2350   83 85   70/ 14/ 16 1015.5R   3/13   2/110/13
FOLLY BEACH CMAN 2300   82      60/ 14/ 15 1017.0F
CAPERS NEARSHORE 2308   81 84   30/ 10/ 14 1016.5F
FRIPP NEARSHORE  2308   83 86   80/ 12/ 17 1015.3F


STATION/POSITION TIME  TEMP    WIND        PRES    WAVE   SWELL
                       AIR SEA DIR/SP/G            HT/PER HT/PER/DIR
                 (UTC) (F)     (DEG/KT/KT) (MB)    (FT/S) (FT/S/D)
5E ST. MARYS GA  2301      85                N/A     4/14   2/100/14
FRYING PAN BUOY  2300   83 85   20/ 12/ 16 1016.3F
BUOY 41025       2350   83 84   40/ 19/ 23 1015.9F   6/12   3/100/12
CAPE LOOKOUT NC  2300   82      30/ 21/ 23 1016.7F
BUOY 41002       2350   83 84  290/  8/ 10 1015.1R   4/12   3/110/12
BUOY 41010       NOT AVBL
ST AUGUSTINE FL  0000   81 84   40/ 14/ 14 1015.6F


$$




USA.gov is the U.S. government's official web portal to all federal, state and local government web resources and services.